This is the latest recevied weather packets stored in our database for station/object ALANSN-2. If no packets are shown the sender has not sent any weather packets the latest 10 day(s).
| Time | Temp. | Humidity | Pressure | Rain* | Wind** | Luminosity | Snow |
|---|---|---|---|---|---|---|---|
| 1788528720 | 17.78° C | 99% | 1026.8 hPa | 0 mm | - | 125 W/m² | - |
| 1788528420 | 17.78° C | 99% | 1026.8 hPa | 0 mm | - | 125 W/m² | - |
| 1788528119 | 17.78° C | 99% | 1026.6 hPa | 0 mm | - | 130 W/m² | - |
| 1788527518 | 17.22° C | 99% | 1026.5 hPa | 0 mm | - | 111 W/m² | - |
| 1788527220 | 17.22° C | 99% | 1026.5 hPa | 0 mm | - | 102 W/m² | - |
| 1788526917 | 16.67° C | 99% | 1026.8 hPa | 0 mm | - | 83 W/m² | - |
| 1788526620 | 16.67° C | 99% | 1026.8 hPa | 0 mm | - | 83 W/m² | - |
| 1788526319 | 16.67° C | 99% | 1026.7 hPa | 0 mm | - | 85 W/m² | - |
| 1788526020 | 16.67° C | 99% | 1026.7 hPa | 0 mm | - | 55 W/m² | - |
| 1788525719 | 16.67° C | 99% | 1026.7 hPa | 0 mm | - | 55 W/m² | - |
| 1788525420 | 16.67° C | 99% | 1026.5 hPa | 0 mm | - | 56 W/m² | - |
| 1788525119 | 16.67° C | 99% | 1027 hPa | 0 mm | - | 50 W/m² | - |
| 1788524820 | 16.67° C | 99% | 1026.8 hPa | 0 mm | - | 52 W/m² | - |
| 1788524220 | 16.67° C | 99% | 1027 hPa | 0 mm | - | 35 W/m² | - |
| 1788523919 | 16.67° C | 99% | 1026.7 hPa | 0 mm | - | 30 W/m² | - |
| 1788523619 | 16.67° C | 99% | 1026.7 hPa | 0 mm | - | 29 W/m² | - |
| 1788523319 | 16.67° C | 99% | 1026.5 hPa | 0 mm | - | 23 W/m² | - |
| 1788523020 | 16.67° C | 99% | 1026.5 hPa | 0 mm | - | 23 W/m² | - |
| 1788522720 | 16.67° C | 99% | 1026.4 hPa | 0 mm | - | 23 W/m² | - |
| 1788522419 | 16.67° C | 99% | 1026.3 hPa | 0 mm | - | 12 W/m² | - |
| 1788522141 | 16.67° C | 99% | 1026.3 hPa | 0 mm | - | 12 W/m² | - |
| 1788521819 | 16.67° C | 99% | 1026 hPa | 0 mm | - | 13 W/m² | - |
| 1788521520 | 16.11° C | 99% | 1026.2 hPa | 0 mm | - | 13 W/m² | - |
| 1788521220 | 16.67° C | 99% | 1026.4 hPa | 1.78 mm | - | 3 W/m² | - |
| 1788520920 | 16.67° C | 99% | 1026.4 hPa | 1.78 mm | - | 3 W/m² | - |
* Rain latest hour (hover to see other rain measurements)
** Current wind speed in m/s (hover to see current wind gust speed)